Location: Unspecified
(50.7693°N, 0.0000°E)
Time: 10:22:26
(UTC+00:00)

Transit 2A - Pass Details

Date: 25 June 2019
Orbit: 594 x 964 km, 66.7° (Epoch: 19 July)

Event Time Altitude Azimuth Distance (km) Brightness Sun altitude
Rises 23:51:00 0° 214° (SW) 3,633 - -15.8°
Reaches altitude 10° 23:53:34 10° 214° (SW) 2,697 - -15.8°
Exits shadow 23:54:45 16° 214° (SW) 2,270 8.0 -15.8°
Maximum altitude 23:59:58 87° 125° (SE) 961 6.4 -15.9°
Drops below altitude 10° 00:06:10 10° 38° (NE) 2,620 9.5 -15.9°
Sets 00:08:37 0° 38° (NE) 3,524 10.3 -15.8°
